カタログに戻る

COSMOS 1275 DEB

運用中PO
NORAD 12712·DEBRIS·🇷🇺 Russia

打ち上げ Jun 4, 1981 から Plesetsk Cosmodrome

Loading…

次のパス (今後24時間)

TLE

最新Source: Space-Track

元期: Sep 14, 2026, 17:15 UTC

1 12712U 81053BG  26257.71916653  .00000827  00000-0  65118-3 0  9991
2 12712  82.9808 249.0579 0067996 196.1602 340.4607 13.89608294263889

AllMySatでCOSMOS 1275 DEBをリアルタイム追跡

Download on the App Store